Time,TemperatureF,DewpointF,PressureIn,WindDirection,WindDirectionDegrees,WindSpeedMPH,WindSpeedGustMPH,Humidity,HourlyPrecipIn,Conditions,Clouds,dailyrainin,SoftwareType,DateUTC
2013-02-10 00:00:00,39.3,25.7,30.16,SE,127,0.0,2.0,58,0.00,,,0.00,Wunderground v.1.15,2013-02-10 05:00:00,
2013-02-10 00:10:00,39.5,25.9,30.16,SSE,164,1.0,1.0,58,0.00,,,0.00,Wunderground v.1.15,2013-02-10 05:10:00,
2013-02-10 00:19:00,39.4,26.7,30.16,SW,221,1.0,2.0,60,0.00,,,0.00,Wunderground v.1.15,2013-02-10 05:19:00,
2013-02-10 00:30:00,39.3,26.6,30.16,SW,214,1.0,2.0,60,0.00,,,0.00,Wunderground v.1.15,2013-02-10 05:30:00,
2013-02-10 00:40:00,39.4,25.8,30.16,SSE,163,1.0,1.0,58,0.00,,,0.00,Wunderground v.1.15,2013-02-10 05:40:00,
2013-02-10 00:50:00,39.5,25.9,30.15,SSE,157,0.0,1.0,58,0.00,,,0.00,Wunderground v.1.15,2013-02-10 05:50:00,
2013-02-10 01:00:00,39.7,26.5,30.16,SE,136,0.0,0.0,59,0.00,,,0.00,Wunderground v.1.15,2013-02-10 06:00:00,
2013-02-10 01:10:00,39.7,26.1,30.15,SE,129,0.0,0.0,58,0.00,,,0.00,Wunderground v.1.15,2013-02-10 06:10:00,
2013-02-10 01:20:00,39.8,26.2,30.15,SE,132,0.0,0.0,58,0.00,,,0.00,Wunderground v.1.15,2013-02-10 06:20:00,
2013-02-10 01:30:00,40.0,26.4,30.15,SE,131,0.0,0.0,58,0.00,,,0.00,Wunderground v.1.15,2013-02-10 06:30:00,
2013-02-10 01:40:00,39.9,27.5,30.15,SE,131,0.0,0.0,61,0.00,,,0.00,Wunderground v.1.15,2013-02-10 06:40:00,
2013-02-10 01:50:00,39.7,26.9,30.15,SE,131,0.0,0.0,60,0.00,,,0.00,Wunderground v.1.15,2013-02-10 06:50:00,
2013-02-10 02:00:00,39.6,28.8,30.15,SE,131,0.0,0.0,65,0.00,,,0.00,Wunderground v.1.15,2013-02-10 07:00:00,
2013-02-10 02:09:00,39.4,29.3,30.15,SE,131,0.0,0.0,67,0.00,,,0.00,Wunderground v.1.15,2013-02-10 07:09:00,
2013-02-10 02:20:00,39.2,28.8,30.15,SE,131,0.0,0.0,66,0.00,,,0.00,Wunderground v.1.15,2013-02-10 07:20:00,
2013-02-10 02:30:00,39.3,30.0,30.15,SE,131,0.0,1.0,69,0.00,,,0.00,Wunderground v.1.15,2013-02-10 07:30:00,
2013-02-10 02:40:00,39.0,29.0,30.15,SE,131,0.0,0.0,67,0.00,,,0.00,Wunderground v.1.15,2013-02-10 07:40:00,
2013-02-10 02:50:00,38.9,28.9,30.15,SE,131,0.0,0.0,67,0.00,,,0.00,Wunderground v.1.15,2013-02-10 07:50:00,
2013-02-10 03:00:00,37.7,29.8,30.14,NNW,331,2.0,3.0,73,0.00,,,0.00,Wunderground v.1.15,2013-02-10 08:00:00,
2013-02-10 03:10:00,37.2,31.0,30.15,NE,36,1.0,1.0,78,0.00,,,0.00,Wunderground v.1.15,2013-02-10 08:10:00,
2013-02-10 03:20:00,36.5,30.9,30.13,NW,305,2.0,2.0,80,0.00,,,0.00,Wunderground v.1.15,2013-02-10 08:20:00,
2013-02-10 03:30:00,36.7,30.2,30.12,NE,36,1.0,2.0,77,0.00,,,0.00,Wunderground v.1.15,2013-02-10 08:30:00,
2013-02-10 03:40:00,37.1,28.9,30.12,NE,34,1.0,2.0,72,0.00,,,0.00,Wunderground v.1.15,2013-02-10 08:40:00,
2013-02-10 03:50:00,37.4,28.9,30.11,NNE,28,1.0,1.0,71,0.00,,,0.00,Wunderground v.1.15,2013-02-10 08:50:00,
2013-02-10 04:00:00,37.6,29.0,30.12,NNE,28,1.0,1.0,71,0.00,,,0.00,Wunderground v.1.15,2013-02-10 09:00:00,
2013-02-10 04:10:00,37.6,29.0,30.13,NNE,28,1.0,1.0,71,0.00,,,0.00,Wunderground v.1.15,2013-02-10 09:10:00,
2013-02-10 04:20:00,37.6,30.7,30.12,NNE,28,0.0,0.0,76,0.00,,,0.00,Wunderground v.1.15,2013-02-10 09:20:00,
2013-02-10 04:30:00,37.3,30.1,30.12,NNE,28,0.0,0.0,75,0.00,,,0.00,Wunderground v.1.15,2013-02-10 09:30:00,
2013-02-10 04:40:00,37.6,31.4,30.11,NNE,28,0.0,0.0,78,0.00,,,0.00,Wunderground v.1.15,2013-02-10 09:40:00,
2013-02-10 04:50:00,37.2,29.3,30.11,NNE,28,1.0,1.0,73,0.00,,,0.00,Wunderground v.1.15,2013-02-10 09:50:00,
2013-02-10 05:00:00,37.7,30.8,30.11,NNE,28,0.0,0.0,76,0.00,,,0.00,Wunderground v.1.15,2013-02-10 10:00:00,
2013-02-10 05:10:00,37.5,29.3,30.10,NNE,28,0.0,0.0,72,0.00,,,0.00,Wunderground v.1.15,2013-02-10 10:10:00,
2013-02-10 05:20:00,37.6,28.3,30.10,NNE,28,1.0,2.0,69,0.00,,,0.00,Wunderground v.1.15,2013-02-10 10:20:00,
2013-02-10 05:30:00,37.7,28.4,30.10,NNE,28,1.0,1.0,69,0.00,,,0.00,Wunderground v.1.15,2013-02-10 10:30:00,
2013-02-10 05:40:00,37.6,28.3,30.09,NNE,28,2.0,2.0,69,0.00,,,0.00,Wunderground v.1.15,2013-02-10 10:40:00,
2013-02-10 05:50:00,37.7,28.4,30.10,NNE,28,1.0,1.0,69,0.00,,,0.00,Wunderground v.1.15,2013-02-10 10:50:00,
2013-02-10 06:00:00,38.2,31.9,30.10,NNE,28,0.0,0.0,78,0.00,,,0.00,Wunderground v.1.15,2013-02-10 11:00:00,
2013-02-10 06:10:00,38.4,32.8,30.10,NNE,28,0.0,0.0,80,0.00,,,0.00,Wunderground v.1.15,2013-02-10 11:10:00,
2013-02-10 06:20:00,38.6,31.7,30.09,NNE,28,0.0,0.0,76,0.00,,,0.00,Wunderground v.1.15,2013-02-10 11:20:00,
2013-02-10 06:29:00,38.3,29.4,30.09,NNE,28,1.0,1.0,70,0.00,,,0.00,Wunderground v.1.15,2013-02-10 11:29:00,
2013-02-10 06:40:00,38.1,31.2,30.09,NNE,28,1.0,1.0,76,0.00,,,0.00,Wunderground v.1.15,2013-02-10 11:40:00,
2013-02-10 06:50:00,37.8,31.6,30.09,NNE,28,0.0,0.0,78,0.00,,,0.00,Wunderground v.1.15,2013-02-10 11:50:00,
2013-02-10 07:00:00,37.8,29.9,30.08,NNE,28,0.0,0.0,73,0.00,,,0.00,Wunderground v.1.15,2013-02-10 12:00:00,
2013-02-10 07:10:00,38.6,28.9,30.08,NW,313,0.0,2.0,68,0.00,,,0.00,Wunderground v.1.15,2013-02-10 12:10:00,
2013-02-10 07:20:00,39.2,29.9,30.08,SW,217,1.0,1.0,69,0.00,,,0.00,Wunderground v.1.15,2013-02-10 12:20:00,
2013-02-10 07:30:00,39.6,30.6,30.07,South,170,1.0,1.0,70,0.00,,,0.00,Wunderground v.1.15,2013-02-10 12:30:00,
2013-02-10 07:40:00,40.0,31.7,30.07,SSE,168,1.0,4.0,72,0.00,,,0.00,Wunderground v.1.15,2013-02-10 12:40:00,
2013-02-10 07:50:00,40.5,32.5,30.07,SE,138,1.0,1.0,73,0.00,,,0.00,Wunderground v.1.15,2013-02-10 12:50:00,
2013-02-10 08:00:00,40.5,32.5,30.07,SSW,205,1.0,3.0,73,0.00,,,0.00,Wunderground v.1.15,2013-02-10 13:00:00,
2013-02-10 08:10:00,40.4,33.4,30.06,South,186,2.0,2.0,76,0.00,,,0.00,Wunderground v.1.15,2013-02-10 13:10:00,
2013-02-10 08:19:00,40.6,34.3,30.06,SSE,162,2.0,2.0,78,0.00,,,0.00,Wunderground v.1.15,2013-02-10 13:19:00,
2013-02-10 08:29:00,40.9,34.9,30.07,South,180,2.0,2.0,79,0.00,,,0.00,Wunderground v.1.15,2013-02-10 13:29:00,
2013-02-10 08:40:00,41.3,35.6,30.06,SSW,200,1.0,1.0,80,0.00,,,0.00,Wunderground v.1.15,2013-02-10 13:40:00,
2013-02-10 08:50:00,41.3,36.5,30.06,SW,219,2.0,2.0,83,0.00,,,0.00,Wunderground v.1.15,2013-02-10 13:50:00,
2013-02-10 09:00:00,41.3,36.8,30.06,South,178,2.0,2.0,84,0.00,,,0.00,Wunderground v.1.15,2013-02-10 14:00:00,
2013-02-10 09:10:00,41.5,37.3,30.06,SSW,204,2.0,2.0,85,0.00,,,0.00,Wunderground v.1.15,2013-02-10 14:10:00,
2013-02-10 09:20:00,41.7,37.8,30.06,SW,229,2.0,2.0,86,0.00,,,0.00,Wunderground v.1.15,2013-02-10 14:20:00,
2013-02-10 09:30:00,41.9,37.7,30.05,SSW,209,2.0,2.0,85,0.00,,,0.00,Wunderground v.1.15,2013-02-10 14:30:00,
2013-02-10 09:40:00,42.3,38.1,30.05,South,170,1.0,1.0,85,0.00,,,0.00,Wunderground v.1.15,2013-02-10 14:40:00,
2013-02-10 09:50:00,42.7,38.5,30.04,South,173,1.0,1.0,85,0.00,,,0.00,Wunderground v.1.15,2013-02-10 14:50:00,
2013-02-10 10:00:00,43.4,38.9,30.03,SSW,192,1.0,1.0,84,0.00,,,0.00,Wunderground v.1.15,2013-02-10 15:00:00,
2013-02-10 10:10:00,44.4,39.2,30.02,SW,222,2.0,4.0,82,0.00,,,0.00,Wunderground v.1.15,2013-02-10 15:10:00,
2013-02-10 10:19:00,45.7,39.9,30.01,South,176,3.0,3.0,80,0.00,,,0.00,Wunderground v.1.15,2013-02-10 15:19:00,
2013-02-10 10:30:00,47.1,39.2,30.00,South,177,5.0,5.0,74,0.00,,,0.00,Wunderground v.1.15,2013-02-10 15:30:00,
2013-02-10 10:40:00,47.9,39.7,29.99,SW,214,5.0,5.0,73,0.00,,,0.00,Wunderground v.1.15,2013-02-10 15:40:00,
2013-02-10 10:50:00,48.6,38.9,29.98,SSE,155,6.0,8.0,69,0.00,,,0.00,Wunderground v.1.15,2013-02-10 15:50:00,
2013-02-10 11:00:00,49.0,39.3,29.97,SSW,213,7.0,8.0,69,0.00,,,0.00,Wunderground v.1.15,2013-02-10 16:00:00,
2013-02-10 11:10:00,49.5,39.4,29.97,South,182,7.0,7.0,68,0.00,,,0.00,Wunderground v.1.15,2013-02-10 16:10:00,
2013-02-10 11:20:00,49.7,39.2,29.97,WSW,240,6.0,6.0,67,0.00,,,0.00,Wunderground v.1.15,2013-02-10 16:20:00,
2013-02-10 11:30:00,49.8,39.3,29.97,South,177,6.0,10.0,67,0.00,,,0.00,Wunderground v.1.15,2013-02-10 16:30:00,
2013-02-10 11:40:00,50.1,38.8,29.96,South,173,7.0,7.0,65,0.00,,,0.00,Wunderground v.1.15,2013-02-10 16:40:00,
2013-02-10 11:50:00,50.5,38.8,29.95,South,173,6.0,6.0,64,0.00,,,0.00,Wunderground v.1.15,2013-02-10 16:50:00,
2013-02-10 12:00:00,51.0,38.4,29.95,SSW,199,6.0,6.0,62,0.00,,,0.00,Wunderground v.1.15,2013-02-10 17:00:00,
2013-02-10 12:10:00,51.2,38.2,29.94,SSW,192,7.0,7.0,61,0.00,,,0.00,Wunderground v.1.15,2013-02-10 17:10:00,
2013-02-10 12:20:00,51.4,38.4,29.92,SSW,193,7.0,7.0,61,0.00,,,0.00,Wunderground v.1.15,2013-02-10 17:20:00,
2013-02-10 12:30:00,51.6,38.6,29.90,SSW,195,5.0,7.0,61,0.00,,,0.00,Wunderground v.1.15,2013-02-10 17:30:00,
2013-02-10 12:39:00,51.5,38.9,29.90,SSW,205,4.0,5.0,62,0.00,,,0.00,Wunderground v.1.15,2013-02-10 17:39:00,
2013-02-10 12:50:00,51.5,38.5,29.89,SSE,167,4.0,5.0,61,0.00,,,0.00,Wunderground v.1.15,2013-02-10 17:50:00,
2013-02-10 13:00:00,51.6,38.6,29.90,SW,220,4.0,5.0,61,0.00,,,0.00,Wunderground v.1.15,2013-02-10 18:00:00,
2013-02-10 13:10:00,51.7,38.7,29.91,South,191,5.0,5.0,61,0.00,,,0.00,Wunderground v.1.15,2013-02-10 18:10:00,
2013-02-10 13:20:00,51.7,39.1,29.91,South,188,3.0,3.0,62,0.00,,,0.00,Wunderground v.1.15,2013-02-10 18:20:00,
2013-02-10 13:30:00,51.7,39.5,29.90,South,177,3.0,3.0,63,0.00,,,0.00,Wunderground v.1.15,2013-02-10 18:30:00,
2013-02-10 13:40:00,51.4,40.0,29.91,SW,217,3.0,3.0,65,0.00,,,0.00,Wunderground v.1.15,2013-02-10 18:40:00,
2013-02-10 13:50:00,50.8,41.0,29.91,SSW,197,2.0,2.0,69,0.00,,,0.00,Wunderground v.1.15,2013-02-10 18:50:00,
2013-02-10 14:00:00,49.6,42.7,29.91,SSW,198,2.0,2.0,77,0.14,,,0.02,Wunderground v.1.15,2013-02-10 19:00:00,
2013-02-10 14:10:00,47.8,43.5,29.91,SSW,198,2.0,2.0,85,0.29,,,0.06,Wunderground v.1.15,2013-02-10 19:10:00,
2013-02-10 14:20:00,47.1,43.7,29.90,SSW,198,2.0,2.0,88,0.46,,,0.12,Wunderground v.1.15,2013-02-10 19:20:00,
2013-02-10 14:30:00,46.8,44.0,29.86,ESE,109,2.0,4.0,90,0.22,,,0.17,Wunderground v.1.15,2013-02-10 19:30:00,
2013-02-10 14:40:00,47.2,44.1,29.87,SW,223,2.0,4.0,89,0.12,,,0.20,Wunderground v.1.15,2013-02-10 19:40:00,
2013-02-10 14:50:00,47.7,44.3,29.84,South,178,4.0,6.0,88,0.05,,,0.20,Wunderground v.1.15,2013-02-10 19:50:00,
2013-02-10 15:00:00,47.8,44.4,29.85,SW,217,4.0,4.0,88,0.00,,,0.20,Wunderground v.1.15,2013-02-10 20:00:00,
2013-02-10 15:10:00,48.1,44.7,29.84,South,178,4.0,4.0,88,0.00,,,0.20,Wunderground v.1.15,2013-02-10 20:10:00,
2013-02-10 15:20:00,48.4,44.7,29.82,South,184,6.0,6.0,87,0.00,,,0.20,Wunderground v.1.15,2013-02-10 20:20:00,
2013-02-10 15:30:00,48.6,45.2,29.82,South,185,5.0,6.0,88,0.00,,,0.20,Wunderground v.1.15,2013-02-10 20:30:00,
2013-02-10 15:40:00,49.0,45.3,29.81,South,183,6.0,7.0,87,0.00,,,0.20,Wunderground v.1.15,2013-02-10 20:40:00,
2013-02-10 15:50:00,49.4,46.0,29.81,South,190,6.0,6.0,88,0.00,,,0.20,Wunderground v.1.15,2013-02-10 20:50:00,
2013-02-10 16:00:00,49.6,45.9,29.81,SW,215,5.0,6.0,87,0.00,,,0.20,Wunderground v.1.15,2013-02-10 21:00:00,
2013-02-10 16:10:00,50.0,46.3,29.82,South,172,5.0,5.0,87,0.00,,,0.20,Wunderground v.1.15,2013-02-10 21:10:00,
2013-02-10 16:19:00,50.4,46.7,29.79,South,178,6.0,6.0,87,0.00,,,0.20,Wunderground v.1.15,2013-02-10 21:19:00,
2013-02-10 16:30:00,51.1,47.1,29.79,SSW,205,7.0,7.0,86,0.00,,,0.20,Wunderground v.1.15,2013-02-10 21:30:00,
2013-02-10 16:40:00,51.4,47.4,29.79,SSW,201,7.0,7.0,86,0.00,,,0.20,Wunderground v.1.15,2013-02-10 21:40:00,
2013-02-10 16:50:00,51.5,47.5,29.78,SSW,203,6.0,7.0,86,0.00,,,0.20,Wunderground v.1.15,2013-02-10 21:50:00,
2013-02-10 17:00:00,51.6,47.5,29.78,SSE,167,6.0,10.0,86,0.00,,,0.20,Wunderground v.1.15,2013-02-10 22:00:00,
2013-02-10 17:10:00,51.7,47.6,29.78,South,172,6.0,6.0,86,0.00,,,0.20,Wunderground v.1.15,2013-02-10 22:10:00,
2013-02-10 17:20:00,51.8,47.4,29.77,SSW,207,7.0,7.0,85,0.00,,,0.20,Wunderground v.1.15,2013-02-10 22:20:00,
2013-02-10 17:30:00,51.7,47.6,29.77,SW,229,7.0,7.0,86,0.00,,,0.20,Wunderground v.1.15,2013-02-10 22:30:00,
2013-02-10 17:40:00,51.9,47.8,29.77,SSE,156,8.0,9.0,86,0.00,,,0.20,Wunderground v.1.15,2013-02-10 22:40:00,
2013-02-10 17:50:00,52.0,47.9,29.77,SSW,207,8.0,9.0,86,0.00,,,0.20,Wunderground v.1.15,2013-02-10 22:50:00,
2013-02-10 18:00:00,52.1,48.0,29.76,SSW,202,9.0,9.0,86,0.00,,,0.20,Wunderground v.1.15,2013-02-10 23:00:00,
2013-02-10 18:09:00,52.1,48.0,29.76,South,175,8.0,8.0,86,0.00,,,0.20,Wunderground v.1.15,2013-02-10 23:09:00,
2013-02-10 18:20:00,52.3,48.2,29.76,SW,223,9.0,9.0,86,0.00,,,0.20,Wunderground v.1.15,2013-02-10 23:20:00,
2013-02-10 18:30:00,52.4,48.3,29.76,SW,226,9.0,14.0,86,0.00,,,0.20,Wunderground v.1.15,2013-02-10 23:30:00,
2013-02-10 18:40:00,52.6,48.5,29.77,SSW,197,8.0,8.0,86,0.00,,,0.20,Wunderground v.1.15,2013-02-10 23:40:00,
2013-02-10 18:49:00,52.7,48.6,29.75,South,183,9.0,9.0,86,0.00,,,0.20,Wunderground v.1.15,2013-02-10 23:49:00,
2013-02-10 19:00:00,52.7,48.6,29.77,SSW,203,8.0,8.0,86,0.00,,,0.20,Wunderground v.1.15,2013-02-11 00:00:00,
2013-02-10 19:10:00,52.7,48.6,29.76,SSW,201,7.0,7.0,86,0.00,,,0.20,Wunderground v.1.15,2013-02-11 00:10:00,
2013-02-10 19:20:00,52.6,48.5,29.77,SSE,161,7.0,7.0,86,0.00,,,0.20,Wunderground v.1.15,2013-02-11 00:20:00,
2013-02-10 19:30:00,52.5,48.7,29.77,SSW,207,6.0,6.0,87,0.00,,,0.20,Wunderground v.1.15,2013-02-11 00:30:00,
2013-02-10 19:40:00,52.5,48.4,29.77,SW,234,6.0,6.0,86,0.00,,,0.20,Wunderground v.1.15,2013-02-11 00:40:00,
2013-02-10 19:50:00,52.8,48.7,29.77,SW,217,7.0,8.0,86,0.00,,,0.20,Wunderground v.1.15,2013-02-11 00:50:00,
2013-02-10 20:00:00,52.9,48.8,29.77,SSW,198,7.0,7.0,86,0.00,,,0.20,Wunderground v.1.15,2013-02-11 01:00:00,
2013-02-10 20:10:00,53.0,48.9,29.76,SSW,202,6.0,6.0,86,0.00,,,0.20,Wunderground v.1.15,2013-02-11 01:10:00,
2013-02-10 20:20:00,53.0,48.9,29.77,South,171,6.0,6.0,86,0.00,,,0.20,Wunderground v.1.15,2013-02-11 01:20:00,
2013-02-10 20:30:00,53.0,48.9,29.77,SSW,208,5.0,7.0,86,0.00,,,0.20,Wunderground v.1.15,2013-02-11 01:30:00,
2013-02-10 20:39:00,52.8,48.7,29.77,SSW,213,7.0,8.0,86,0.00,,,0.20,Wunderground v.1.15,2013-02-11 01:39:00,
2013-02-10 20:50:00,52.8,48.7,29.77,SSW,194,6.0,6.0,86,0.00,,,0.20,Wunderground v.1.15,2013-02-11 01:50:00,
2013-02-10 21:00:00,52.8,48.7,29.77,SW,220,6.0,6.0,86,0.00,,,0.20,Wunderground v.1.15,2013-02-11 02:00:00,
2013-02-10 21:09:00,52.9,49.1,29.77,SW,221,6.0,6.0,87,0.00,,,0.20,Wunderground v.1.15,2013-02-11 02:09:00,
2013-02-10 21:20:00,52.9,49.1,29.77,South,189,6.0,6.0,87,0.00,,,0.20,Wunderground v.1.15,2013-02-11 02:20:00,
2013-02-10 21:30:00,52.7,49.2,29.77,SW,224,6.0,7.0,88,0.00,,,0.20,Wunderground v.1.15,2013-02-11 02:30:00,
2013-02-10 21:40:00,52.7,49.5,29.77,SSW,206,5.0,5.0,89,0.00,,,0.20,Wunderground v.1.15,2013-02-11 02:40:00,
2013-02-10 21:50:00,52.3,49.8,29.76,South,187,5.0,5.0,91,0.00,,,0.20,Wunderground v.1.15,2013-02-11 02:50:00,
2013-02-10 22:00:00,51.9,49.6,29.76,South,184,4.0,4.0,92,0.00,,,0.20,Wunderground v.1.15,2013-02-11 03:00:00,
2013-02-10 22:10:00,51.6,49.6,29.76,SSW,202,4.0,4.0,93,0.00,,,0.20,Wunderground v.1.15,2013-02-11 03:10:00,
2013-02-10 22:20:00,51.6,49.9,29.76,SSW,212,4.0,4.0,94,0.00,,,0.20,Wunderground v.1.15,2013-02-11 03:20:00,
2013-02-10 22:29:00,51.5,49.8,29.77,SSW,199,4.0,4.0,94,0.00,,,0.20,Wunderground v.1.15,2013-02-11 03:29:00,
2013-02-10 22:40:00,51.6,49.9,29.77,SSW,212,3.0,6.0,94,0.00,,,0.20,Wunderground v.1.15,2013-02-11 03:40:00,
2013-02-10 22:50:00,51.7,50.0,29.77,SSW,205,4.0,4.0,94,0.00,,,0.20,Wunderground v.1.15,2013-02-11 03:50:00,
2013-02-10 23:00:00,52.2,50.2,29.76,SSW,192,5.0,5.0,93,0.00,,,0.20,Wunderground v.1.15,2013-02-11 04:00:00,
2013-02-10 23:10:00,52.3,50.3,29.76,SW,214,4.0,4.0,93,0.00,,,0.20,Wunderground v.1.15,2013-02-11 04:10:00,
2013-02-10 23:20:00,52.7,50.4,29.76,SSW,213,5.0,6.0,92,0.00,,,0.20,Wunderground v.1.15,2013-02-11 04:20:00,
2013-02-10 23:30:00,53.0,50.4,29.75,South,188,5.0,5.0,91,0.00,,,0.20,Wunderground v.1.15,2013-02-11 04:30:00,
2013-02-10 23:40:00,53.2,50.6,29.75,SSW,213,4.0,5.0,91,0.00,,,0.20,Wunderground v.1.15,2013-02-11 04:40:00,
2013-02-10 23:49:00,53.3,50.7,29.75,SW,222,4.0,4.0,91,0.00,,,0.20,Wunderground v.1.15,2013-02-11 04:49:00,